If you wish to contribute or participate in the discussions about articles you are invited to join SKYbrary as a registered user

 Actions

Agen-La Garenne Airport

From SKYbrary Wiki

LFBA
Airport
ICAO: LFBA – IATA: AGF
Summary
Name Agen-La Garenne Airport
Region Europe
Territory France FR.gif
Location Agen, Aquitaine
Serving Agen
Elevation 62.179 m <br />204 ft <br />204 ft62.179 m <br />
Type medium airport
Coordinates 44° 10' 29.00" N, 0° 35' 26.00" E
Runways
Designator Length Width Surface ROPS
11/29 2165 m7,103.018 ft <br /> 30 m98.425 ft <br /> ASP /


METAR
Observation LFBA 172330Z AUTO 25004KT CAVOK 07/01 Q1022
Station Agen
Date/Time 17 April 2021 23:30:00
Wind direction 250°
Wind speed 04 kts
Lowest cloud amount clouds and visibility OK
Temperature 7°C
Dew point 1°C
Humidity 65%
QNH 1022 hPa
Weather condition n/a

Maps

Terrain

Loading map...

Airport Layout

Loading map...


Accidents & Serious Incidents at or in vicinity of LFBA

None on SKYbrary